www.pogodaiklimat.ru

Погода и климат >> Архив погоды >> Россия >> Якутия >> Покровск


ПОГОДА в Покровске

  • Прогноз погоды в Покровске
  • Монитор погоды в Покровске
  • Климат города

АРХИВ ПОГОДЫ в Покровске

Время (UTC), дата Ветер
(напр.,м/с)
 
Видим.   Явления Облачность Т
(С)
Тd
(С)
f
(%)
Тe
(С)
Тes
(С)
Комфортность P
(гПа)
Po
(гПа)
Тmin
(С)
Tmax
(С)
R
(мм)
R24
(мм)
S
(см)
09 17.05 ЮЗ 6-11
{14}
50 км слабый ливневой дождь 10/10 600 м
[Cb calv]
+9.5 +5.8 78 +6 +6 989.3 975.0
12 17.05 ЮЗ 6-10
{14}
50 км в посл. час дождь {ливн. осадки} 10/10 1020 м
[Sc]
+5.0 +4.3 95 -0 -0 991.6 977.1 +15.1 3
15 17.05 З 5
{12}
20 км {ливн. осадки} 6/6 1000 м
[Sc]
+3.3 -0.5 76 -2 -2 993.2 978.5
18 17.05 З 6
{13}
50 км {ливн. осадки} 10/10 750 м
[Sc]
+2.1 -2.2 73 -4 -4 995.6 980.8
21 17.05 З 6-11
{12}
50 км слабый снег 10/0
[As op]
+1.7 -2.4 74 -4 -4 996.1 981.3
00 18.05 З 8-13
{14}
50 км {снег} 10/10 900 м
[Sc]
+2.7 -3.2 65 -4 -4 998.7 983.9 +1.0
03 18.05 З 8-13
{14}
50 км {снег} 10/10 900 м
[Sc]
+2.7 -3.2 65 -4 -4 998.7 983.9 +1.0
06 18.05 З 8-15
{16}
50 км 5/5 600 м
[Cu med, cong Ci fib]
+7.9 -6.8 35 +4 +5 999.4 984.9
09 18.05 З 5
{14}
50 км 9/9 600 м
[Cb calv]
+7.7 -7.2 34 +5 +5 1001.4 986.8
12 18.05 З 1
{12}
50 км 8/8 600 м
[Cb calv]
+4.9 -1.7 62 +4 +4 1004.5 989.8 +9.0
15 18.05 З 1 20 км ясно -1.2 -8.4 58 -3 -3 1006.3 991.2
18 18.05 З 2 50 км ясно -6.7 -10.0 77 -11 -11 1007.4 991.8
21 18.05 З 2 50 км 4/0
[Ac trans]
-2.6 -8.2 65 -6 -5 1007.6 992.4
00 19.05 50 км н/о +3.2 -8.1 43 -1 +1 1007.4 992.5 -7.0
03 19.05 З 7-11
{14}
50 км 8/6 600 м
[Cu hum]
+4.4 -10.5 33 -0 +1 1007.4 992.5
06 19.05 З 7-10
{14}
50 км 10/10 1000 м
[Sc]
+5.4 -11.3 29 +1 +1 1008.2 993.4
09 19.05 З 5-10
{12}
50 км 10/10 1000 м
[Sc]
+4.7 -11.7 29 +1 +1 1009.3 994.5
12 19.05 СЗ 3
{10}
50 км 6/6 1000 м
[Sc]
+3.0 -12.9 30 0 0 1011.0 996.1 +7.2
15 19.05 С 2 20 км ясно -2.1 -11.6 48 -5 -5 1012.8 997.5
18 19.05 З 2 50 км ясно -8.3 -11.1 80 -13 -13 1013.6 997.9
21 19.05 З 4 50 км 1/0
[Ci fib]
-2.2 -11.3 50 -7 -6 1012.6 997.4
00 20.05 З 7-11
{14}
50 км 8/8 600 м
[Cu med, cong]
+1.5 -12.2 35 -4 -4 1011.6 996.6 -8.3
03 20.05 З 8-12
{15}
50 км 9/9 600 м
[Cu Sc]
+2.1 -9.5 42 -4 -4 1011.3 996.3
06 20.05 З 5
{14}
50 км 10/6 600 м
[Cu med, cong Ci fib]
+2.9 -5.5 54 -2 -0 1010.5 995.6
09 20.05 З 4
{12}
50 км слабый ливневой снег 10/8 600 м
[Cb calv Ci fib]
+2.7 -5.8 53 -1 -1 1010.7 995.8
12 20.05 З 3
{11}
50 км в посл. час ливневой снег 10/6 600 м
[Cb calv Cs]
0.0 -4.4 72 -4 -4 1011.3 996.2 +5.3 0.3
15 20.05 СЗ 3 50 км 10/4 600 м
[Sc Ac und]
-1.3 -7.6 62 -6 -6 1011.6 996.5
18 20.05 З 2 10 км слабый снег 10/0 600 м
[As op]
-2.8 -5.2 84 -7 -7 1011.6 996.4
21 20.05 С 3 4000 м снег 10/0
[As op]
-2.9 -3.9 93 -8 -8 1011.7 996.5
00 21.05 З 3 20 км слабый ливневой снег 10/10 600 м
[Cb calv]
-1.8 -4.7 81 -7 -7 1011.8 996.6 -3.0 2 1
03 21.05 СЗ 3 50 км {ливн. осадки} 8/8 600 м
[Cb calv]
+1.2 -7.1 54 -3 -1 1011.5 996.5
06 21.05 З 4 50 км {ливн. осадки} 10/10 1350 м
[Sc]
+3.5 -7.6 44 -0 -0 1011.5 996.6
09 21.05 В 3 50 км 8/8 1000 м
[Sc]
+3.2 -5.9 51 -0 0 1011.5 996.6
12 21.05 В 1 50 км ясно +2.9 -5.5 54 +2 +2 1011.5 996.6 +4.3 0.0
15 21.05 З 1 20 км ясно -5.0 -7.8 81 -7 -7 1011.8 996.4
18 21.05 З 1 50 км ясно -8.5 -10.4 86 -11 -11 1011.3 995.7
21 21.05 СВ 2 50 км ясно -1.3 -5.3 74 -5 -3 1010.5 995.3
00 22.05 В 2 50 км 6/0
[Ci fib]
+6.0 -6.1 41 +4 +11 1008.6 994.1 -9.2
03 22.05 В 3 50 км 8/0
[Ac trans Ci fib]
+10.8 -7.8 26 +10 +17 1006.4 992.0
06 22.05 Ю 2 50 км 10/5 600 м
[Sc Ac trans Ci fib]
+13.1 -6.8 24 +13 +15 1004.8 990.5
09 22.05 В 2 50 км 9/8 600 м
[Sc Ci fib]
+12.9 -5.3 28 +13 +13 1004.2 989.9
12 22.05 СВ 3 50 км 10/5 600 м
[Sc Ac trans Ci fib]
+9.2 -3.6 40 +7 +7 1003.9 989.4 +13.6
15 22.05 СВ 3 20 км 10/8
[Sc Ac trans Ci fib]
+7.2 -4.9 42 +5 +5 1003.3 988.7
18 22.05 СВ 4 50 км 10/8 1000 м
[Sc As trans]
+6.0 -6.5 40 +3 +3 1003.2 988.5
21 22.05 СВ 4 50 км 10/8 1000 м
[Sc As trans]
+5.5 -6.1 43 +2 +2 1003.2 988.5
00 23.05 СВ 5 50 км 8/6 1000 м
[Sc As trans]
+9.4 -7.7 29 +7 +8 1002.9 988.4 +5.5
03 23.05 Ю 1 50 км 9/0 1000 м
[Ac und]
+12.4 -5.4 28 +13 +19 1002.9 988.5
06 23.05 З 2 50 км 6/0
[As trans]
+17.1 -7.1 18 +18 +24 1002.8 988.7
09 23.05 ЮЗ 5 50 км ясно +14.7 -0.3 36 +13 +15 1003.3 989.1
12 23.05 СЗ 6-10
{11}
50 км 4/0
[As trans]
+11.8 -2.7 36 +9 +9 1005.5 991.1 -20.1
15 23.05 СЗ 5
{11}
20 км 8/8 1000 м
[Sc]
+7.2 +0.7 63 +4 +4 1007.6 992.9
18 23.05 З 2 50 км 8/8 1000 м
[Sc]
+3.9 +0.5 78 +1 +1 1008.6 993.7
21 23.05 ЮЗ 3 50 км ясно +3.7 +0.3 78 0 +1 1009.2 994.3
00 24.05 Ю 5 50 км 3/0
[Ci fib]
+6.7 +0.6 65 +3 +7 1008.2 993.5 +1.7
03 24.05 ЮЗ 5 50 км 10/0
[Ci fib]
+13.2 -1.8 35 +12 +17 1004.6 990.3

 

Местоположение метеостанции Покровск (Якутия, Россия): широта 61.48 долгота 129.10 высота над уровнем моря 121 м.

В архиве по умолчанию представлена погода в Покровске за последнюю неделю. Архивные данные за месяц целиком и за предыдущие месяцы, начиная с января 2011 года, Вы можете получить, выбрав интересующий диапазон дат из раскрывающегося списка и нажав кнопку "Ввод!".

Внимание! Время в таблицах - всемирное. Для получения местного времени необходимо прибавить поправку, которая в Покровске равна 9 ч.

Смотрите также архив погоды в соседних городах и на ближайших метеорологических станциях:

Погода в Якутске (Якутия, Россия) (64 км)
Погода в Тегюльте (Якутия, Россия) (122 км)
Погода в Намцах (Якутия, Россия) (140 км)
Погода в Бердигестяхе (Якутия, Россия) (141 км)
Погода в Амге (Якутия, Россия) (163 км)
Погода в Чурапче (Якутия, Россия) (194 км)
Погода в Исите (Якутия, Россия) (217 км)
Погода в Батамае (Якутия, Россия) (227 км)
Погода в Буяге (Якутия, Россия) (232 км)
Погода в Тонгулахе (Якутия, Россия) (247 км)

Пояснения к столбцам:

Ветер - указаны скорость ветра в м/с - средняя за 10 мин, порывы в срок и между сроками (в фигурных скобках) и направление, откуда дует ветер: С - северный, СВ - северо-восточный, В - восточный, ЮВ - юго-восточный, Ю - южный, ЮЗ - юго-западный, З - западный, СЗ - северо-западный.
Видимость - горизонтальная дальность видимости в метрах или километрах. При видимости от 1 до 10 км при отсутствии осадков обычно наблюдается дымка, при ухудшении видимости до 1 км и менее - туман. В сухую погоду видимость может ухудшаться дымом, пылью или мглою.
Явления - указаны атмосферные явления, наблюдавшиеся в срок или в последний час перед сроком; фигурными скобками обозначены явления, наблюдавшиеся между сроками (за 1-3 часа до срока); квадратными скобками обозначены град или гололедные отложения с указанием их диаметра в мм.
Облачность - указаны через наклонную черту общая и нижняя облачность в баллах и высота нижней границы облаков в метрах; квадратными скобками обозначены формы облаков: Ci - перистые, Cs - перисто-слоистые, Cc - перисто-кучевые, Ac - высококучевые, As - высокослоистые, Sc - слоисто-кучевые, Ns - слоисто-дождевые, Cu - кучевые, Cb - кучево-дождевые. Подробнее классификацию облаков см. в Атласе облаков (PDF).
T - Температура воздуха - температура, измеренная на высоте 2 м над землей.
Td - Температура точки росы - температура, при понижении до которой содержащийся в воздухе водяной пар достигнет насыщения.
f - Относительная влажность воздуха - влажноcть воздуха, измеренная на высоте 2 м над землей.
Te - Эффективная температура - температура, которую ощущает одетый по сезону человек в тени. Характеристика душности погоды. При расчете учитывается влияние влажности воздуха и скорости ветра на теплоощущения человека.
Tes - Эффективная температура на солнце - температура, которую ощущает человек, с поправкой на солнечный нагрев. Характеристика знойности погоды. Зависит от высоты солнца над горизонтом, облачности и скорости ветра. Ночью, в пасмурную погоду, а также при ветре 12 м/с и более поправка равна нулю.
P - Атмосферное давление - приведенное к уровню моря атмосферное давление.
Po - Атмосферное давление - измеренное на уровне метеостанции атмосферное давление.
Tmin - Минимальная температура - минимум температуры воздуха на высоте 2 м над землей.
Tmax - Максимальная температура - максимум температуры воздуха на высоте 2 м над землей.
R - Количество осадков - Количество выпавших осадков за период времени, мм. При наведении курсора мыши на число - период времени, за который выпало указанное количество осадков.
R24 - Количество осадков - Количество выпавших осадков за 24 часа, мм.
S - Снежный покров - Высота снежного покрова, см. При наведении курсора мыши на число - состояние снежного покрова и степень покрытия местности в баллах.